Weather History for Sparta, WI

Change the Weather History Date:

Friday, January 10, 2014

  Actual Average Record
Temperature  
Mean Temperature 26 °F -  
Max Temperature 31 °F 19 °F 51 °F (2012)
Min Temperature 20 °F 0 °F -36 °F (1977)
Degree Days  
Heating Degree Days 40    
Moisture  
Dew Point 26 °F    
Average Humidity 96    
Maximum Humidity 100    
Minimum Humidity 86    
Precipitation  
Precipitation 0.00 in - - ()
Sea Level Pressure  
Sea Level Pressure 29.76 in    
Wind  
Wind Speed 4 mph (SSE)    
Max Wind Speed 9 mph    
Max Gust Speed -    
Visibility 4 miles    
Events Snow    
Averages and records for this station are not official NWS values.
T = Trace of Precipitation, MM = Missing Value Source: NWS Daily Summary

Daily Weather History Graph

Daily Weather History Graph

Search for Another Location

Airport:

Trip Planner

Search our weather history database for the weather conditions in past years. The results will help you decide how hot, cold, wet, or windy it might be!

Date:

Astronomy

Jan. 10, 2014 Rise Set
Actual Time 7:36 AM CST 4:45 PM CST
Civil Twilight 7:04 AM CST 5:17 PM CST
Nautical Twilight 6:28 AM CST 5:53 PM CST
Astronomical Twilight 5:53 AM CST 6:28 PM CST
Moon 12:51 PM CST (1/10) 2:40 AM CST (1/10)
Length of Visible Light 10h 13m
Length of Day
9h 08m
Waxing Gibbous, 75% of the Moon is Illuminated
Jan 10
Waxing Gibbous
Jan 15
Full
Jan 23
Last Quarter
Jan 30
New
Feb 6
First Quarter

Hourly Weather History & Observations

Time (CST) Temp. Windchill Dew Point Humidity Pressure Visibility Wind Dir Wind Speed Gust Speed Precip Events Conditions
12:15 AM 20.7 °F 13.0 °F 17.2 °F 87% 30.03 in 7.0 mi South 5.8 mph - N/A   Overcast
12:35 AM 20.8 °F 14.4 °F 17.4 °F 87% 30.02 in 7.0 mi South 4.6 mph - N/A   Overcast
12:55 AM 21.2 °F 14.9 °F 17.6 °F 86% 30.01 in 7.0 mi South 4.6 mph - N/A   Overcast
1:15 AM 21.2 °F 16.4 °F 17.8 °F 87% 30.01 in 7.0 mi SSW 3.5 mph - N/A   Overcast
1:35 AM 21.2 °F 16.4 °F 18.1 °F 88% 30.01 in 7.0 mi South 3.5 mph - N/A   Overcast
1:55 AM 21.6 °F 16.8 °F 18.5 °F 88% 30.01 in 5.0 mi SSW 3.5 mph - N/A   Overcast
2:15 AM 21.7 °F 17.0 °F 18.5 °F 87% 30.01 in 5.0 mi South 3.5 mph - N/A   Overcast
2:35 AM 21.9 °F 15.7 °F 19.0 °F 89% 30.02 in 5.0 mi South 4.6 mph - N/A   Overcast
2:55 AM 22.1 °F 15.9 °F 19.4 °F 89% 30.01 in 5.0 mi SSW 4.6 mph - N/A   Overcast
3:15 AM 22.1 °F 17.4 °F 19.4 °F 89% 30.01 in 5.0 mi SW 3.5 mph - N/A   Overcast
3:35 AM 22.1 °F 15.9 °F 19.8 °F 91% 29.99 in 4.0 mi South 4.6 mph - N/A   Overcast
3:55 AM 22.5 °F - 20.1 °F 91% 29.99 in 4.0 mi Calm Calm - N/A   Overcast
4:15 AM 22.5 °F - 20.3 °F 91% 29.98 in 4.0 mi Calm Calm - N/A   Overcast
4:35 AM 22.6 °F - 20.7 °F 92% 29.98 in 4.0 mi Calm Calm - N/A   Overcast
4:55 AM 23.0 °F - 21.6 °F 94% 29.97 in 4.0 mi Calm Calm - N/A   Overcast
5:15 AM 23.2 °F 18.7 °F 22.3 °F 96% 29.97 in 3.0 mi South 3.5 mph - N/A   Overcast
5:35 AM 23.5 °F 17.6 °F 22.8 °F 97% 29.97 in 3.0 mi South 4.6 mph - N/A   Overcast
5:55 AM 23.7 °F 16.6 °F 23.0 °F 97% 29.95 in 3.0 mi South 5.8 mph - N/A   Overcast
6:15 AM 23.9 °F 15.8 °F 23.4 °F 98% 29.95 in 3.0 mi South 6.9 mph - N/A   Overcast
6:35 AM 23.9 °F 16.8 °F 23.4 °F 98% 29.93 in 3.0 mi South 5.8 mph - N/A   Overcast
6:55 AM 23.9 °F 18.0 °F 23.5 °F 99% 29.92 in 3.0 mi SSE 4.6 mph - N/A   Overcast
7:15 AM 24.3 °F 17.3 °F 23.7 °F 98% 29.92 in 3.0 mi SE 5.8 mph - N/A   Overcast
7:35 AM 24.4 °F 20.1 °F 23.9 °F 98% 29.91 in 2.5 mi SE 3.5 mph - N/A   Overcast
7:55 AM 24.6 °F 20.3 °F 24.3 °F 99% 29.91 in 2.0 mi SSE 3.5 mph - N/A   Overcast
8:15 AM 25.0 °F - 24.6 °F 99% 29.90 in 2.0 mi Calm Calm - N/A   Overcast
8:35 AM 25.7 °F 18.0 °F 25.2 °F 98% 29.90 in 2.5 mi SE 6.9 mph - N/A   Overcast
8:55 AM 26.6 °F 19.1 °F 25.5 °F 96% 29.89 in 3.0 mi SSE 6.9 mph - N/A   Overcast
9:15 AM 26.6 °F 18.2 °F 25.7 °F 96% 29.89 in 2.5 mi SSE 8.1 mph - N/A   Overcast
9:35 AM 27.1 °F 19.7 °F 26.1 °F 96% 29.88 in 3.0 mi SSE 6.9 mph - N/A   Overcast
9:55 AM 27.3 °F 22.0 °F 26.2 °F 96% 29.88 in 3.0 mi SSE 4.6 mph - N/A   Overcast
10:15 AM 28.0 °F 20.0 °F 26.6 °F 94% 29.88 in 4.0 mi SE 8.1 mph - N/A   Overcast
10:35 AM 28.4 °F 21.2 °F 26.6 °F 93% 29.86 in 5.0 mi SE 6.9 mph - N/A   Overcast
10:55 AM 29.1 °F 20.6 °F 27.0 °F 92% 29.84 in 5.0 mi ESE 9.2 mph - N/A   Overcast
11:15 AM 29.1 °F 21.3 °F 27.3 °F 93% 29.82 in 5.0 mi SE 8.1 mph - N/A   Overcast
11:35 AM 29.3 °F 22.3 °F 27.5 °F 93% 29.80 in 7.0 mi SE 6.9 mph - N/A   Overcast
11:55 AM 29.5 °F 22.5 °F 27.9 °F 94% 29.79 in 4.0 mi SSE 6.9 mph - N/A   Overcast
12:35 PM 29.7 °F 24.7 °F 28.8 °F 96% 29.75 in 1.8 mi ESE 4.6 mph - N/A   Overcast
12:56 PM 30.2 °F 25.4 °F 28.4 °F 93% 29.73 in 2.5 mi SE 4.6 mph - N/A   Overcast
1:15 PM 30.2 °F 26.7 °F 29.3 °F 96% 29.72 in 2.5 mi SE 3.5 mph - N/A   Overcast
1:35 PM 30.2 °F 25.4 °F 29.7 °F 98% 29.70 in 3.0 mi ESE 4.6 mph - N/A   Overcast
1:55 PM 30.6 °F 27.1 °F 29.8 °F 97% 29.70 in 4.0 mi ESE 3.5 mph - N/A   Overcast
2:15 PM 30.7 °F 26.0 °F 30.0 °F 97% 29.69 in 5.0 mi East 4.6 mph - N/A   Overcast
2:35 PM 30.7 °F 24.9 °F 30.2 °F 98% 29.67 in 2.0 mi East 5.8 mph - N/A   Overcast
2:55 PM 30.6 °F 24.7 °F 30.2 °F 99% 29.65 in 2.0 mi East 5.8 mph - N/A Snow Light Snow
3:35 PM 30.4 °F 24.5 °F 30.2 °F 99% 29.62 in 3.0 mi East 5.8 mph - N/A Snow Light Snow
3:55 PM 30.9 °F 25.2 °F 30.6 °F 99% 29.62 in 3.0 mi East 5.8 mph - N/A Snow Light Snow
4:15 PM 31.1 °F 27.7 °F 30.2 °F 96% 29.62 in 7.0 mi East 3.5 mph - N/A   Overcast
4:35 PM 31.1 °F - 30.4 °F 97% 29.61 in 10.0 mi Calm Calm - N/A   Overcast
4:55 PM 31.1 °F - 30.9 °F 99% 29.61 in 2.5 mi Calm Calm - N/A   Overcast
5:15 PM 31.5 °F 28.1 °F 31.1 °F 99% 29.59 in 3.0 mi ENE 3.5 mph - N/A Snow Light Snow
5:35 PM 31.1 °F - 31.1 °F 100% 29.58 in 4.0 mi Calm Calm - N/A   Overcast
5:55 PM 31.5 °F - 31.5 °F 100% 29.57 in 3.0 mi Calm Calm - N/A Snow Light Snow
6:15 PM 31.5 °F - 31.5 °F 100% 29.57 in 2.0 mi Calm Calm - N/A Snow Light Snow
6:35 PM 31.1 °F - 31.1 °F 100% 29.56 in 1.5 mi Calm Calm - N/A Snow Light Snow
6:55 PM 31.1 °F 27.7 °F 31.1 °F 100% 29.55 in 3.0 mi North 3.5 mph - N/A Snow Light Snow
7:15 PM 31.1 °F 27.7 °F 31.1 °F 100% 29.54 in 1.8 mi NNE 3.5 mph - N/A Snow Light Snow
7:35 PM 31.1 °F - 31.1 °F 100% 29.53 in 2.0 mi Calm Calm - N/A Snow Light Snow
7:55 PM 31.1 °F - 31.1 °F 100% 29.53 in 1.8 mi Calm Calm - N/A Snow Light Snow
8:15 PM 30.7 °F - 30.7 °F 100% 29.52 in 2.0 mi Calm Calm - N/A Snow Light Snow
8:35 PM 30.6 °F - 30.6 °F 100% 29.51 in 1.8 mi Calm Calm - N/A Snow Light Snow
8:55 PM 30.7 °F - 30.7 °F 100% 29.50 in 1.8 mi Calm Calm - N/A Snow Light Snow
9:15 PM 30.6 °F - 30.6 °F 100% 29.50 in 2.0 mi Calm Calm - N/A Snow Light Snow
9:35 PM 30.7 °F - 30.7 °F 100% 29.49 in 2.5 mi Calm Calm - N/A   Overcast
9:55 PM 30.2 °F - 30.2 °F 100% 29.48 in 1.8 mi Calm Calm - N/A Snow Light Snow
10:15 PM 30.2 °F - 30.2 °F 100% 29.48 in 2.5 mi Calm Calm - N/A   Overcast
10:35 PM 30.2 °F - 30.2 °F 100% 29.47 in 2.5 mi Calm Calm - N/A   Overcast
10:55 PM 30.2 °F - 30.2 °F 100% 29.46 in 2.5 mi Calm Calm - N/A   Overcast
11:15 PM 30.2 °F - 30.2 °F 100% 29.46 in 2.5 mi Calm Calm - N/A   Overcast
11:35 PM 30.2 °F 26.7 °F 30.2 °F 100% 29.47 in 3.0 mi West 3.5 mph - N/A   Overcast
11:55 PM 30.2 °F - 30.2 °F 100% 29.47 in 1.5 mi Calm Calm - N/A Snow Light Snow